Change the Weather History Date:

Monday, October 14, 2013

  Actual Average Record
Temperature  
Mean Temperature 69 °F 65 °F  
Max Temperature 79 °F 82 °F 94 °F (2011)
Min Temperature 58 °F 48 °F 37 °F (2008)
Degree Days  
Heating Degree Days 0 2  
Month to date heating degree days 26 15  
Since 1 July heating degree days 26 17  
Cooling Degree Days 4 2  
Month to date cooling degree days 23 46  
Year to date cooling degree days 1838 1797  
Growing Degree Days 18 (Base 50)    
Moisture  
Dew Point 49 °F    
Average Humidity 53    
Maximum Humidity 75    
Minimum Humidity 30    
Precipitation  
Precipitation 0.00 in 0.03 in 0.64 in (1988)
Month to date precipitation 0.00 0.48  
Year to date precipitation 17.11 11.03  
Snow  
Snow 0.00 in - - ()
Month to date snowfall 0.0  
Snow Depth 0.00 in    
Sea Level Pressure  
Sea Level Pressure 29.91 in    
Wind  
Wind Speed 8 mph (SSW)    
Max Wind Speed 24 mph    
Max Gust Speed 31 mph    
Visibility 10 miles    
Events      
T = Trace of Precipitation, MM = Missing Value Source: NWS Daily Summary

Daily Weather History Graph

Daily Weather History Graph

Search for Another Location

Airport or City:

Trip Planner

Search our weather history database for the weather conditions in past years. The results will help you decide how hot, cold, wet, or windy it might be!

Date:

Astronomy

Oct. 14, 2013 Rise Set
Actual Time 6:20 AM MST 5:47 PM MST
Civil Twilight 5:56 AM MST 6:11 PM MST
Nautical Twilight 5:28 AM MST 6:39 PM MST
Astronomical Twilight 5:00 AM MST 7:07 PM MST
Moon 3:04 PM MST (10/14) 1:57 AM MST (10/14)
Length of Visible Light 12h 15m
Length of Day
11h 26m
Waxing Gibbous, 80% of the Moon is Illuminated
Oct 14
Waxing Gibbous
Oct 18
Full
Oct 26
Last Quarter
Nov 3
New
Nov 9
First Quarter

Hourly Weather History & Observations

Time (MST) Temp. Dew Point Humidity Pressure Visibility Wind Dir Wind Speed Gust Speed Precip Events Conditions
12:56 AM 63.0 °F 48.9 °F 60% 29.92 in 10.0 mi SW 5.8 mph - N/A   Partly Cloudy
1:56 AM 62.1 °F 50.0 °F 65% 29.93 in 10.0 mi Calm Calm - N/A   Clear
2:56 AM 61.0 °F 50.0 °F 67% 29.91 in 10.0 mi SSW 4.6 mph - N/A   Clear
3:56 AM 62.1 °F 50.0 °F 65% 29.90 in 10.0 mi Calm Calm - N/A   Clear
4:56 AM 60.1 °F 50.0 °F 69% 29.92 in 10.0 mi ESE 4.6 mph - N/A   Clear
5:56 AM 62.1 °F 51.1 °F 67% 29.93 in 10.0 mi SE 5.8 mph - N/A   Mostly Cloudy
6:56 AM 59.0 °F 51.1 °F 75% 29.96 in 10.0 mi SE 6.9 mph - N/A   Partly Cloudy
7:56 AM 64.0 °F 52.0 °F 65% 29.96 in 10.0 mi SSW 4.6 mph - N/A   Scattered Clouds
8:56 AM 68.0 °F 52.0 °F 56% 29.96 in 10.0 mi WSW 5.8 mph - N/A   Clear
9:56 AM 72.0 °F 52.0 °F 49% 29.95 in 10.0 mi SSW 6.9 mph - N/A   Partly Cloudy
10:56 AM 73.0 °F 51.1 °F 46% 29.94 in 10.0 mi SW 9.2 mph - N/A   Mostly Cloudy
11:56 AM 73.9 °F 48.0 °F 40% 29.91 in 10.0 mi West 15.0 mph - N/A   Partly Cloudy
12:56 PM 77.0 °F 45.0 °F 32% 29.89 in 10.0 mi WSW 13.8 mph 26.5 mph N/A   Scattered Clouds
1:56 PM 78.1 °F 44.1 °F 30% 29.86 in 10.0 mi WSW 20.7 mph 26.5 mph N/A   Clear
2:56 PM 78.1 °F 45.0 °F 31% 29.86 in 10.0 mi WSW 15.0 mph - N/A   Clear
3:56 PM 75.9 °F 45.0 °F 33% 29.86 in 10.0 mi WSW 13.8 mph 23.0 mph N/A   Partly Cloudy
4:56 PM 75.0 °F 45.0 °F 34% 29.86 in 10.0 mi West 11.5 mph - N/A   Clear
5:56 PM 72.0 °F 45.0 °F 38% 29.87 in 10.0 mi WSW 9.2 mph - N/A   Clear
6:56 PM 69.1 °F 46.0 °F 44% 29.90 in 10.0 mi SW 6.9 mph - N/A   Clear
7:56 PM 66.9 °F 46.0 °F 47% 29.89 in 10.0 mi West 4.6 mph - N/A   Scattered Clouds
8:56 PM 64.0 °F 48.9 °F 58% 29.91 in 10.0 mi South 5.8 mph - N/A   Mostly Cloudy
9:56 PM 63.0 °F 51.1 °F 65% 29.90 in 10.0 mi SE 3.5 mph - N/A   Clear
10:56 PM 60.1 °F 50.0 °F 69% 29.90 in 10.0 mi SSE 5.8 mph - N/A   Clear
11:56 PM 60.1 °F 51.1 °F 72% 29.90 in 10.0 mi SSE 6.9 mph - N/A   Scattered Clouds